Regional Weather Roundup
Issued by NWS

Home | Current Version | Previous Version | Graphics & Text | Print | Product List | Glossary On
Versions: 1 2 3 4 5 6 7 8 9 10 11 12 13 14 15 16 17 18 19 20 21 22 23 24 25 26 27 28
000
ASUS45 KCYS 291510
RWRWY

WYOMING REGIONAL WEATHER ROUNDUP
NATIONAL WEATHER SERVICE CHEYENNE WY
900 AM MDT WED OCT 29 2014

NOTE:  "FAIR" INDICATES FEW OR NO CLOUDS BELOW 12,000 FEET
WITH NO SIGNIFICANT WEATHER AND/OR OBSTRUCTIONS TO VISIBILITY.

WYZ001-291600-
YELLOWSTONE NATIONAL PARK

CITY           SKY/WX    TMP DP  RH WIND       PRES   REMARKS
LK YELLOWSTONE   N/A     28  23  81 CALM      30.26
W YELLOWSTONE  NOT AVBL

$$
WYZ002>013-054>058-071-098>099-291600-
NORTHERN WYOMING

CITY           SKY/WX    TMP DP  RH WIND       PRES   REMARKS
JACKSON        CLOUDY    27  25  93 CALM      30.27R
CODY           MOSUNNY   50  25  37 W13G21    30.10
GREYBULL       PTSUNNY   32  15  49 CALM      30.12R
WORLAND        PTSUNNY   31  16  54 S10       30.11R WCI  22
SHERIDAN       PTSUNNY   48  29  47 S5        30.00R
BUFFALO        PTSUNNY   48  20  32 W7        30.03R
GILLETTE       MOSUNNY   47  18  31 S7        30.01S
HULETT         FAIR      41  21  45 W5        30.03
NEWCASTLE      FAIR      36  23  60 SW5       30.08  WCI  32

$$
WYZ014>020-022>026-101>103-291600-
CENTRAL WYOMING

CITY           SKY/WX    TMP DP  RH WIND       PRES   REMARKS
BIG PINEY      MOSUNNY   22  14  71 E7        30.29F WCI  13
PINEDALE       CLOUDY    27  19  74 NW3       30.31
DUBOIS         PTSUNNY   37  21  52 NW14G21   30.20R WCI  29
LANDER         MOSUNNY   34  16  47 NE3       30.14R
RIVERTON       MOSUNNY   39  13  34 SW7       30.15R WCI  34
CASPER         SUNNY     45  13  27 SW21G32   30.14R
DOUGLAS        SUNNY     32  19  58 S3        30.09F

$$
WYZ021-027>030-104>119-291600-
SOUTHERN WYOMING

CITY           SKY/WX    TMP DP  RH WIND       PRES   REMARKS
EVANSTON       SUNNY     36  10  34 SW9       30.33R WCI  29
FORT BRIDGER   FAIR      39  15  36 W7        30.35R WCI  34
ROCK SPRINGS   MOSUNNY   36  10  34 SW15      30.29R WCI  27
DIXON          FAIR      24  17  73 CALM      30.35
RAWLINS        MOSUNNY   41  10  28 W17G26    30.26R
SARATOGA       FAIR      36  14  41 SE8       30.29R WCI  29
LARAMIE        SUNNY     43  12  28 SW18G24   30.23R
CHEYENNE       SUNNY     51  13  21 W15       30.17R
TORRINGTON     SUNNY     29  22  75 CALM      30.11R
PINE BLUFFS    FAIR      37  28  70 S8        30.16S WCI  31

$$



USA.gov is the U.S. government's official web portal to all federal, state and local government web resources and services.